When you browse on this site, cookies collect data to enhance your experience and personalize the content and advertising you see.
Visit our Privacy Policy to learn more. By continuing to use the site, you agree to this use of cookies and data.
  • In United Kingdom
  • List of Countries
  • For 7 days
  • Water Temperature
  • Satellite Maps
  • Weather Map
  • Weather Widgets
  • user-avatar
    Login

    Hourly Weather Namyur

    Today, 14 December, Friday

    Time Temperature Precipitation Wind Pressure Humidity
    00:00 -2°C° 0 mm 3 mps 754 mmHg 80%
    01:00 -2°C° 0 mm 3 mps 754 mmHg 82%
    02:00 -2°C° 0 mm 2 mps 754 mmHg 83%
    03:00 -3°C° 0 mm 2 mps 754 mmHg 84%
    04:00 -3°C° 0 mm 2 mps 754 mmHg 85%
    05:00 -3°C° 0 mm 2 mps 754 mmHg 86%
    06:00 -1°C° 0 mm 1 mps 755 mmHg 88%
    07:00 -3°C° 0 mm 2 mps 755 mmHg 85%
    08:00 -2°C° 0 mm 2 mps 755 mmHg 82%
    09:00 -2°C° 0 mm 2 mps 756 mmHg 80%
    10:00 -1°C° 0 mm 2 mps 756 mmHg 73%
    11:00 0°C° 0 mm 3 mps 756 mmHg 67%
    12:00 +1°C° 0 mm 3 mps 756 mmHg 60%
    13:00 +1°C° 0 mm 2 mps 756 mmHg 61%
    14:00 +1°C° 0 mm 2 mps 756 mmHg 63%
    15:00 +1°C° 0 mm 2 mps 756 mmHg 64%
    16:00 -1°C° 0 mm 2 mps 756 mmHg 66%
    17:00 -1°C° 0 mm 2 mps 757 mmHg 68%
    18:00 0°C° 0 mm 1 mps 757 mmHg 71%
    19:00 -2°C° 0 mm 2 mps 757 mmHg 72%
    20:00 -2°C° 0 mm 2 mps 757 mmHg 74%
    21:00 -3°C° 0 mm 2 mps 757 mmHg 76%
    22:00 -3°C° 0 mm 2 mps 757 mmHg 77%
    23:00 -1°C° 0 mm 1 mps 757 mmHg 78%

    Tomorrow, 15 December, Saturday

    Time Temperature Precipitation Wind Pressure Humidity
    00:00 -1°C° 0 mm 1 mps 757 mmHg 79%
    01:00 -1°C° 0 mm 1 mps 757 mmHg 79%
    02:00 -1°C° 0 mm 1 mps 757 mmHg 80%
    03:00 -2°C° 0 mm 1 mps 757 mmHg 80%
    04:00 -4°C° 0 mm 2 mps 757 mmHg 80%
    05:00 -4°C° 0 mm 2 mps 757 mmHg 80%
    06:00 -4°C° 0 mm 2 mps 756 mmHg 80%
    07:00 -3°C° 0 mm 2 mps 756 mmHg 76%
    08:00 -4°C° 0 mm 3 mps 756 mmHg 73%
    09:00 -2°C° 0 mm 3 mps 756 mmHg 69%
    10:00 -2°C° 0 mm 4 mps 756 mmHg 64%
    11:00 -1°C° 0 mm 4 mps 755 mmHg 59%
    12:00 0°C° 0 mm 4 mps 755 mmHg 54%
    13:00 0°C° 0 mm 4 mps 754 mmHg 56%
    14:00 -1°C° 0 mm 5 mps 753 mmHg 57%
    15:00 -1°C° 0 mm 5 mps 753 mmHg 58%
    16:00 -1°C° 0 mm 5 mps 752 mmHg 57%
    17:00 -2°C° 0 mm 6 mps 751 mmHg 56%
    18:00 -2°C° 0 mm 7 mps 751 mmHg 55%
    19:00 -2°C° 0.6 mm 7 mps 750 mmHg 60%
    20:00 -2°C° 0.6 mm 8 mps 749 mmHg 65%
    21:00 -1°C° 0.6 mm 8 mps 748 mmHg 69%
    22:00 -1°C° 2.2 mm 8 mps 748 mmHg 75%
    23:00 -1°C° 2.2 mm 8 mps 747 mmHg 81%

    Day after tomorrow, 16 December, Sunday

    Time Temperature Precipitation Wind Pressure Humidity
    00:00 0°C° 2.2 mm 8 mps 746 mmHg 86%
    01:00 0°C° 0.2 mm 8 mps 746 mmHg 88%
    02:00 0°C° 0.2 mm 7 mps 745 mmHg 89%
    03:00 +1°C° 0.2 mm 6 mps 745 mmHg 91%
    04:00 +1°C° 0 mm 6 mps 745 mmHg 92%
    05:00 +1°C° 0 mm 5 mps 746 mmHg 92%
    06:00 +1°C° 0 mm 5 mps 746 mmHg 93%
    07:00 +2°C° 0.1 mm 5 mps 746 mmHg 94%
    08:00 +2°C° 0.1 mm 5 mps 747 mmHg 94%
    09:00 +3°C° 0.1 mm 4 mps 747 mmHg 94%
    10:00 +3°C° 0.4 mm 4 mps 747 mmHg 94%
    11:00 +3°C° 0.4 mm 4 mps 747 mmHg 94%
    12:00 +3°C° 0.4 mm 4 mps 747 mmHg 94%
    13:00 +3°C° 0.2 mm 4 mps 748 mmHg 94%
    14:00 +3°C° 0.2 mm 4 mps 748 mmHg 95%
    15:00 +3°C° 0.2 mm 4 mps 748 mmHg 95%
    16:00 +3°C° 0 mm 4 mps 748 mmHg 95%
    17:00 +3°C° 0 mm 4 mps 748 mmHg 95%
    18:00 +3°C° 0 mm 4 mps 749 mmHg 95%
    19:00 +2°C° 0 mm 3 mps 749 mmHg 95%
    20:00 +2°C° 0 mm 3 mps 749 mmHg 95%
    21:00 +2°C° 0 mm 3 mps 750 mmHg 95%
    22:00 +2°C° 0 mm 3 mps 750 mmHg 95%
    23:00 +2°C° 0 mm 3 mps 750 mmHg 95%

    17 December, Monday

    Time Temperature Precipitation Wind Pressure Humidity
    00:00 +2°C° 0 mm 3 mps 750 mmHg 95%
    01:00 +2°C° 0 mm 3 mps 750 mmHg 95%
    02:00 +2°C° 0 mm 3 mps 750 mmHg 95%
    03:00 +2°C° 0 mm 3 mps 750 mmHg 95%
    04:00 +2°C° 0.2 mm 3 mps 750 mmHg 95%
    05:00 +2°C° 0.2 mm 3 mps 750 mmHg 94%
    06:00 +3°C° 0.2 mm 3 mps 750 mmHg 94%
    07:00 +3°C° 0.7 mm 3 mps 751 mmHg 94%
    08:00 +3°C° 0.7 mm 3 mps 752 mmHg 94%
    09:00 +3°C° 0.7 mm 3 mps 752 mmHg 94%
    10:00 +4°C° 0.4 mm 2 mps 752 mmHg 93%
    11:00 +5°C° 0.4 mm 2 mps 753 mmHg 92%
    12:00 +5°C° 0.4 mm 2 mps 753 mmHg 92%
    13:00 +5°C° 0 mm 2 mps 754 mmHg 93%
    14:00 +5°C° 0 mm 2 mps 754 mmHg 94%
    15:00 +5°C° 0 mm 2 mps 754 mmHg 96%
    16:00 +4°C° 0 mm 2 mps 755 mmHg 96%
    17:00 +4°C° 0 mm 2 mps 755 mmHg 96%
    18:00 +3°C° 0 mm 3 mps 756 mmHg 96%
    19:00 +3°C° 0 mm 3 mps 756 mmHg 95%
    20:00 +3°C° 0 mm 3 mps 757 mmHg 95%
    21:00 +3°C° 0 mm 3 mps 757 mmHg 95%
    22:00 +3°C° 0 mm 3 mps 757 mmHg 95%
    23:00 +3°C° 0 mm 4 mps 757 mmHg 94%

    18 December, Tuesday

    Time Temperature Precipitation Wind Pressure Humidity
    00:00 +1°C° 0 mm 4 mps 757 mmHg 94%
    01:00 +3°C° 0 mm 4 mps 757 mmHg 94%
    02:00 +3°C° 0 mm 4 mps 756 mmHg 94%
    03:00 +3°C° 0 mm 4 mps 756 mmHg 94%
    04:00 +2°C° 0 mm 5 mps 756 mmHg 94%
    05:00 +2°C° 0 mm 5 mps 755 mmHg 94%
    06:00 +2°C° 0 mm 5 mps 755 mmHg 94%
    07:00 +2°C° 0 mm 5 mps 755 mmHg 92%
    08:00 +2°C° 0 mm 6 mps 754 mmHg 90%
    09:00 +3°C° 0 mm 6 mps 754 mmHg 88%
    10:00 +3°C° 0 mm 6 mps 753 mmHg 82%
    11:00 +4°C° 0 mm 7 mps 752 mmHg 76%
    12:00 +5°C° 0 mm 7 mps 751 mmHg 70%
    13:00 +5°C° 0 mm 7 mps 750 mmHg 68%
    14:00 +4°C° 0 mm 7 mps 749 mmHg 67%
    15:00 +4°C° 0 mm 8 mps 748 mmHg 65%
    16:00 +4°C° 0 mm 7 mps 748 mmHg 67%
    17:00 +4°C° 0 mm 7 mps 748 mmHg 68%
    18:00 +4°C° 0 mm 7 mps 748 mmHg 70%
    19:00 +4°C° 0.7 mm 7 mps 747 mmHg 75%
    20:00 +4°C° 0.7 mm 7 mps 747 mmHg 79%
    21:00 +4°C° 0.7 mm 7 mps 747 mmHg 84%
    22:00 +4°C° 0.5 mm 6 mps 747 mmHg 86%
    23:00 +4°C° 0.5 mm 6 mps 747 mmHg 88%

    19 December, Wednesday

    Time Temperature Precipitation Wind Pressure Humidity
    00:00 +6°C° 0.5 mm 5 mps 747 mmHg 90%
    01:00 +6°C° 0 mm 5 mps 747 mmHg 91%
    02:00 +5°C° 0 mm 5 mps 747 mmHg 92%
    03:00 +5°C° 0 mm 5 mps 747 mmHg 93%
    04:00 +5°C° 0 mm 5 mps 748 mmHg 93%
    05:00 +5°C° 0 mm 5 mps 748 mmHg 93%
    06:00 +5°C° 0 mm 5 mps 748 mmHg 92%
    07:00 +4°C° 0.1 mm 6 mps 748 mmHg 91%
    08:00 +4°C° 0.1 mm 6 mps 748 mmHg 90%
    09:00 +5°C° 0.1 mm 7 mps 748 mmHg 89%
    10:00 +5°C° 0.5 mm 7 mps 748 mmHg 87%
    11:00 +5°C° 0.5 mm 6 mps 747 mmHg 86%
    12:00 +5°C° 0.5 mm 6 mps 747 mmHg 85%
    13:00 +5°C° 0.1 mm 6 mps 747 mmHg 84%
    14:00 +6°C° 0.1 mm 5 mps 748 mmHg 83%
    15:00 +6°C° 0.1 mm 5 mps 748 mmHg 83%
    16:00 +5°C° 0 mm 5 mps 748 mmHg 84%
    17:00 +5°C° 0 mm 5 mps 748 mmHg 85%
    18:00 +5°C° 0 mm 5 mps 748 mmHg 85%
    19:00 +4°C° 0 mm 6 mps 748 mmHg 86%
    20:00 +4°C° 0 mm 6 mps 748 mmHg 86%
    21:00 +4°C° 0 mm 6 mps 747 mmHg 87%
    22:00 +4°C° 0.1 mm 6 mps 747 mmHg 87%
    23:00 +4°C° 0.1 mm 6 mps 747 mmHg 87%
    Show more